[keps] orb07347.2l.amsat

Ray Hoad r.hoad at att.net
Thu Dec 13 18:57:11 PST 2007


SB KEPS @ AMSAT  $ORB07347.N
2Line Orbital Elements 07347.AMSAT

HR AMSAT ORBITAL ELEMENTS FOR AMATEUR SATELLITES IN NASA FORMAT
FROM WA5QGD FORT WORTH,TX December 13, 2007
Send Subscribe/unsubscribe to KEPS at 
http://www.amsat.org/mailman/listinfo/keps
BID: ORB07347.N

DECODE 2-LINE ELSETS WITH THE FOLLOWING KEY:
1 AAAAAU 00  0  0 BBBBB.BBBBBBBB  .CCCCCCCC  00000-0  00000-0 0  DDDZ
2 AAAAA EEE.EEEE FFF.FFFF GGGGGGG HHH.HHHH III.IIII JJ.JJJJJJJJKKKKKZ
KEY: A-CATALOGNUM B-EPOCHTIME C-DECAY D-ELSETNUM E-INCLINATION F-RAAN
G-ECCENTRICITY H-ARGPERIGEE I-MNANOM J-MNMOTION K-ORBITNUM Z-CHECKSUM

TO ALL RADIO AMATEURS BT

AO-07
1 07530U 74089B   07346.66857829 -.00000028  00000-0  10000-3 0 00529
2 07530 101.4930 019.2705 0011838 268.5020 091.4695 12.53572962513480
AO-10
1 14129U 83058B   07346.79102027  .00000054  00000-0  10000-3 0 04526
2 14129 025.9627 241.2611 6046475 080.9085 338.9585 02.05871220184246
UO-11
1 14781U 84021B   07346.52470279  .00000395  00000-0  60045-4 0 05444
2 14781 098.1749 012.5327 0008538 323.7378 036.3266 14.79602385276105
RS-15
1 23439U 94085A   07346.78539557 -.00000039  00000-0  10000-3 0 00859
2 23439 064.8141 078.0928 0153244 158.2671 202.4846 11.27552823533834
FO-29
1 24278U 96046B   07346.87358571 -.00000037  00000-0  31746-6 0 06593
2 24278 098.5776 282.7175 0350765 340.5855 018.2195 13.52935053559062
SO-33
1 25509U 98061B   07346.93019944  .00000293  00000-0  44566-4 0 00875
2 25509 031.4326 295.1425 0354851 190.0519 169.2854 14.28191151476826
AO-40
1 26609U 00072B   07343.51025905 -.00000141  00000-0  10000-3 0 09795
2 26609 007.1161 107.6728 7931673 030.6524 357.3836 01.25584770032647
VO-52
1 28650U 05017B   07346.36540215  .00000494  00000-0  69427-4 0 08022
2 28650 097.8147 052.9127 0027811 035.1622 325.1434 14.81395185140791
PO-63
1 29712U 07001D   07347.56423539  .00000650  00000-0  92930-4 0  9995
2 29712 097.9031 044.0516 0013091 267.5755 092.3963 14.79936049 49864
AO-16
1 20439U 90005D   07346.50447173  .00000004  00000-0  16863-4 0 02022
2 20439 098.2109 331.3732 0011605 020.1514 340.0131 14.31778283934065
LO-19
1 20442U 90005G   07346.93235024  .00000037  00000-0  28847-4 0 01270
2 20442 098.1884 340.8141 0012185 017.6145 342.5451 14.32017912934273
AO-27
1 22825U 93061C   07346.57992387  .00000038  00000-0  31127-4 0 08491
2 22825 098.3586 308.9166 0009434 095.5052 264.7221 14.29224975740975
IO-26
1 22826U 93061D   07346.94646848 -.00000007  00000-0  13390-4 0 05497
2 22826 098.3510 310.2634 0009891 090.0399 270.1935 14.29472187741110
PO-28
1 22829U 93061G   07346.53503417 -.00000036  00000-0  20888-5 0 08248
2 22829 098.3391 311.0065 0010679 067.8031 292.4285 14.30174253741309
GO-32
1 25397U 98043D   07346.81199480 -.00000081  00000-0 -17613-4 0 04752
2 25397 098.3910 025.9866 0002168 074.6648 285.4787 14.23134723489569
MO-46
1 26548U 00057D   07347.47108785  .00000110  00000-0  31213-4 0  9714
2 26548 064.5574 347.9996 0007157 348.4147 011.6778 14.83207253390126
NO-44
1 26931U 01043C   07346.64055984 -.00000193  00000-0 -42998-4 0 07562
2 26931 067.0532 047.7946 0005032 254.8750 105.1801 14.29504105323605
SO-50
1 27607U 02058C   07346.27604158  .00000035  00000-0  27492-4 0 04799
2 27607 064.5593 264.2895 0074330 317.2960 042.2390 14.71309394267328
CO-55
1 27844U 03031E   07346.51840152  .00000053  00000-0  45043-4 0 01886
2 27844 098.7190 352.3848 0009359 302.2102 057.8164 14.20548231230792
CO-57
1 27848U 03031J   07346.56199893  .00000048  00000-0  42710-4 0 01448
2 27848 098.7172 351.5651 0009513 304.7070 055.3209 14.20362442230771
AO-51
1 28375U 04025K   07346.58667798  .00000021  00000-0  19017-4 0 09818
2 28375 098.0913 016.5181 0084989 002.3267 357.8304 14.40590195181397
CO-56
1 28941U 06005C   07347.28147744  .00026242  25967-5  23823-3 0  7059
2 28941 098.1087 069.0651 0199631 355.7932 004.1623 15.47112903101055
HO-59
1 29484U 06041F   07347.28000595  .00066762  39090-5  33294-3 0  9412
2 29484 098.2626 066.0506 0153313 336.9457 022.4896 15.66734743 68964
NO-61
1 29664U 06055F   07346.95693350  .00427985  11859-4  21234-3 0 07078
2 29664 051.6211 218.0169 0002254 287.9819 072.0954 16.20254434056783
CP4
1 31122U 07012F   07346.64076652  .00000550  00000-0  13192-3 0  2087
2 31122 098.0681 053.9817 0085448 190.7788 169.1483 14.55061059 34808
CP3
1 31128U 07012M   07346.67994394 -.00000047  00000-0  00000 0 0  2035
2 31128 098.0637 052.8215 0102855 194.1350 165.7007 14.51893186 34725
LIBERT
1 31129U 07012N   07347.63021236  .00000337  00000-0  89029-4 0  5845
2 31129 098.0649 053.7585 0101944 191.0459 168.8476 14.51982965 34844
NOAA-10
1 16969U 86073A   07346.56840133  .00000039  00000-0  34306-4 0 09256
2 16969 098.7365 003.7823 0012774 011.5491 348.5977 14.27344119104673
NOAA-11
1 19531U 88089A   07346.34172526 -.00000144  00000-0 -51741-4 0 09568
2 19531 098.8075 073.2481 0010819 242.7511 117.2551 14.14857869991345
NOAA-12
1 21263U 91032A   07346.58550033  .00000098  00000-0  60554-4 0 04613
2 21263 098.7617 343.6113 0011805 313.2964 046.7223 14.25507358861669
MET-3/5
1 21655U 91056A   07346.92868072  .00000051  00000-0  10000-3 0 03840
2 21655 082.5552 236.6510 0014252 117.9891 242.2666 13.17013380784937
MET-2/21
1 22782U 93055A   07346.69774680  .00000107  00000-0  83106-4 0    92
2 22782 082.5486 260.2906 0024065 094.8089 265.5823 13.83622723721206
OKEAN-4
1 23317U 94066A   07346.76872632  .00000091  00000-0  83335-5 0  4499
2 23317 082.5374 129.9422 0023221 028.4990 331.7491 14.82558124710510
NOAA-14
1 23455U 94089A   07346.85558701 -.00000212  00000-0 -88369-4 0 09331
2 23455 098.9706 053.8077 0008822 318.5651 041.4841 14.13730093667887
SICH-1
1 23657U 95046A   07346.79728296  .00000221  00000-0  24996-4 0  2494
2 23657 082.5288 270.8529 0024997 019.8435 340.3738 14.81533449662477
NOAA-15
1 25338U 98030A   07346.56086971 -.00000040  00000-0  13931-5 0 02735
2 25338 098.5422 338.3243 0009956 225.7790 134.2557 14.24676114498082
RESURS
1 25394U 98043A   07346.94387602 -.00000011  00000-0  13209-4 0 08188
2 25394 098.4149 034.1699 0002308 041.5584 318.5769 14.24150187489791
FENGYUN1
1 25730U 99025A   07346.98041094  .00000166  00000-0  12297-3 0 03202
2 25730 098.7081 324.2426 0021019 339.1724 020.8584 14.07650395442622
OKEAN-0
1 25860U 99039A   07346.55871754  .00000051  00000-0  14992-4 0  2351
2 25860 097.7378 340.5534 0001449 103.5730 256.5638 14.73490265451764
NOAA-16
1 26536U 00055A   07346.56016361  .00000088  00000-0  72890-4 0 07196
2 26536 099.1394 326.8037 0011078 035.6845 324.5050 14.12462462372289
NOAA-17
1 27453U 02032A   07346.86167496  .00000157  00000-0  87011-4 0 07155
2 27453 098.5621 051.6986 0010864 295.4603 064.5443 14.23932373284149
NOAA-18
1 28654U 05018A   07346.86663799 -.00000059  00000-0 -86924-5 0 02312
2 28654 098.8507 285.2985 0015046 121.5084 238.7541 14.11118674132055
HUBBLE
1 20580U 90037B   07347.75436994  .00000345  00000-0  13907-4 0   269
2 20580 028.4667 099.1162 0003786 199.6582 160.3868 15.00313113766955
UARS
1 21701U 91063B   07346.91667195  .00005314  00000-0  87242-4 0 02425
2 21701 056.9752 257.3993 0089991 173.9851 186.2316 15.49856495893446
PO-34
1 25520U 98064B   07345.40313185  .00000387  00000-0  93595-5 0 08886
2 25520 028.4609 002.5784 0004885 029.2996 330.7868 15.17095166504468
ISS
1 25544U 98067A   07347.93651850  .00033745  00000-0  20199-3 0  5068
2 25544 051.6405 257.1066 0000829 344.1844 112.3482 15.77501620519131
OO-38
1 26063U 00004C   07347.53817189 -.00000007  00000-0  17803-4 0   839
2 26063 100.2179 023.2319 0037075 015.6637 344.5688 14.35822399412785
UWE-1
1 28892U 05043C   07346.72997981  .00000157  00000-0  42596-4 0  9211
2 28892 098.1134 239.6272 0016405 276.1838 083.7499 14.59571087113258
CO-58
1 28895U 05043F   07346.22337085  .00000113  00000-0  33424-4 0 08976
2 28895 098.1174 239.4124 0016797 277.3654 082.5621 14.59613332113065
NCUBE2
1 28897U 05043H   07346.27814670  .00000110  00000-0  32657-4 0  4254
2 28897 098.1143 239.4097 0016388 279.6240 080.3087 14.59779800105352
FCAL
1 29667U 06055J   07346.94453507  .00046257  12150-4  11455-3 0 05782
2 29667 051.6282 231.9453 0008290 332.8446 027.2128 15.96489744056473
FALCON
1 30776U 07006E   07347.83572399  .00000485  00000-0  38577-4 0  2032
2 30776 035.4329 203.5298 0001034 269.5757 090.4840 15.02821309 42090
MAST
1 31126U 07012K   07346.22657441  .00000003  00000-0  11418-4 0  2056
2 31126 098.0658 052.9478 0094626 193.7880 166.0733 14.53382925 34712
CAPE1
1 31130U 07012P   07346.67688033  .00000157  00000-0  47414-4 0 01864
2 31130 098.0663 052.8233 0102404 194.0856 165.7475 14.51911627034514
/EX






More information about the Keps mailing list